Theta_e
350 352 352 353 354 355 354 355 356 357 358 358 359 358 359 359 361 362 362 361 360 360 359 358 358 360 354 356 355 357 362 354 344 348 353 358 359 363 362 360 355 356 347
351 351 351 353 354 353 353 354 356 356 358 359 360 361 361 360 361 361 359 357 358 358 358 359 358 354 360 362 361 361 363 358 350 350 353 353 356 361 361 359 355 351 352
351 349 350 351 351 351 352 354 355 356 357 358 358 359 360 360 360 360 360 360 359 358 358 358 357 358 358 356 361 359 362 364 361 354 351 354 356 358 356 355 353 353 348
351 351 351 351 351 351 353 354 354 355 356 358 359 359 360 361 360 359 359 359 359 358 359 359 359 358 358 358 357 361 361 361 360 358 358 358 358 357 354 350 349 349 348
347 351 352 356 355 355 354 354 354 354 355 358 359 358 358 358 355 359 360 360 360 358 359 359 359 357 347 349 360 361 359 359 358 356 354 349 352 352 347 351 348 350 348
349 348 349 352 354 353 355 355 355 354 355 357 357 358 359 355 341 338 351 360 358 358 359 359 359 351 351 338 338 339 345 355 351 352 348 346 348 349 350 349 349 342 341
349 353 353 351 351 353 354 355 354 354 355 355 355 356 356 358 334 334 338 355 358 360 358 357 356 354 348 354 341 338 335 332 335 350 349 347 346 341 340 340 343 343 341
347 350 354 352 351 353 353 353 355 355 354 355 355 356 356 356 330 329 336 356 355 354 352 351 348 342 333 338 345 350 343 338 340 340 331 325 325 330 332 334 338 333 332
346 348 351 351 352 353 352 352 354 354 354 354 355 356 356 354 323 325 335 351 351 347 347 346 348 344 325 326 343 342 330 319 318 319 320 320 321 321 324 333 331 331 329
345 347 350 352 351 349 351 353 354 355 355 354 353 352 339 343 321 324 330 347 343 338 334 329 324 328 318 320 342 343 337 326 320 320 321 322 323 320 320 323 325 330 322
345 344 346 345 349 351 351 350 349 348 344 340 335 335 336 333 331 320 323 342 338 332 328 327 322 318 315 314 322 335 334 326 321 321 323 325 326 325 321 318 320 318 323
343 339 338 341 344 344 344 343 341 335 332 331 330 329 329 328 317 320 320 324 327 330 326 325 322 310 309 312 319 315 318 324 323 322 323 323 322 317 316 319 319 321 320
341 337 335 335 337 342 339 335 333 331 328 327 327 322 321 321 318 313 314 316 318 321 322 316 311 308 310 313 313 316 320 326 325 326 325 320 318 316 318 320 322 324 325
336 333 334 333 329 329 329 334 332 329 327 326 324 321 321 321 321 321 320 321 318 319 317 319 316 314 313 315 317 320 323 327 325 321 319 317 319 318 317 318 318 320 320
329 326 325 325 319 310 305 304 317 314 323 326 324 322 320 318 315 313 316 320 320 316 319 321 321 318 318 320 319 319 320 320 319 320 319 316 316 317 315 318 317 320 318
324 323 322 319 316 316 315 310 302 302 301 301 303 311 310 306 302 302 301 302 303 308 322 319 319 320 318 318 317 316 317 316 316 316 315 314 314 314 314 315 317 315 316
324 322 320 319 318 318 318 316 313 307 300 297 298 301 302 300 300 299 299 300 304 311 319 317 316 318 319 318 317 316 314 314 317 314 314 313 313 312 312 311 313 314 314
324 315 325 325 324 325 327 322 320 317 312 307 299 299 296 297 297 297 299 305 317 317 319 317 317 318 318 317 316 315 314 314 314 313 312 311 311 310 309 309 309 309 311
326 326 326 326 327 323 322 326 325 321 316 309 308 304 300 295 295 298 300 320 320 318 318 318 318 317 317 317 316 314 314 313 312 311 310 309 308 308 307 307 307 301 304
326 321 322 321 319 319 316 314 313 311 311 312 314 314 315 315 317 316 316 320 318 319 320 319 319 318 318 317 316 315 313 312 311 310 309 309 308 308 307 307 307 306 307
323 324 322 321 321 322 321 319 317 316 317 319 319 317 306 319 315 312 313 318 317 316 317 320 321 321 320 319 317 316 314 313 313 312 311 310 310 308 310 309 309 310 309
325 325 326 322 321 321 319 318 317 317 318 318 318 315 300 316 315 316 316 316 317 319 320 322 321 322 322 320 318 316 315 314 314 314 313 312 312 311 311 310 310 310 310
323 322 320 319 319 314 317 316 316 316 316 316 317 316 315 316 317 317 317 319 319 320 320 321 323 322 323 322 320 319 316 316 316 316 314 312 311 312 311 309 309 308 309
323 322 322 321 319 320 319 319 319 311 318 318 318 316 316 317 317 317 318 320 321 322 323 320 320 322 323 322 320 319 319 318 317 316 314 313 312 307 309 309 310 308 309
318 319 319 319 319 318 315 315 314 314 314 314 314 316 317 317 318 318 318 319 320 320 320 322 322 320 322 322 321 320 305 297 310 303 313 311 309 307 309 310 309 309 308
317 318 317 317 315 315 315 315 315 315 315 315 315 315 316 316 316 317 318 318 318 318 319 319 320 320 321 322 322 306 287 290 303 294 311 311 310 309 309 307 307 309 307
Wind_Speed
12 13 12 11 11 10 9 8 7 6 7 8 8 8 8 8 8 8 7 5 6 5 4 5 6 5 5 4 4 4 4 5 6 3 3 2 2 2 1 1 1 1 5
14 13 13 12 11 12 11 10 9 9 8 9 7 7 7 8 9 10 9 7 8 7 7 6 7 5 7 6 4 7 6 5 7 7 3 2 3 2 1 1 0 1 1
13 14 13 13 13 14 13 12 11 10 9 8 8 9 7 8 10 10 9 9 8 8 9 8 8 7 8 6 6 5 5 5 5 5 5 3 3 2 1 1 3 2 2
13 13 14 15 15 14 13 13 13 12 10 9 9 9 8 8 9 10 10 10 10 9 8 8 9 9 8 8 7 7 5 5 5 4 4 4 2 1 4 5 4 3 3
12 15 16 14 14 14 14 13 13 13 12 11 9 9 9 8 8 10 9 9 8 8 9 9 9 9 6 6 5 6 5 4 4 4 5 4 4 2 4 3 5 3 4
15 14 11 12 12 14 14 13 12 13 13 12 12 11 11 8 8 9 10 9 9 9 9 9 7 6 8 4 6 6 8 5 4 4 4 4 4 4 3 4 4 2 3
14 15 13 13 13 14 13 13 14 14 13 13 13 12 12 11 8 8 8 9 8 8 7 6 6 1 2 4 0 1 8 9 7 4 5 4 3 4 4 4 4 4 2
12 15 14 13 13 12 12 14 14 13 13 13 13 13 12 10 7 8 8 7 5 5 4 3 4 6 3 3 2 2 4 6 3 3 6 4 3 2 2 2 3 2 2
11 14 14 12 14 14 14 14 13 12 12 12 12 12 11 6 8 9 7 6 7 6 5 5 7 7 5 5 5 7 6 4 6 12 12 10 8 10 7 1 2 0 2
10 10 11 11 13 14 13 13 11 10 10 8 6 6 4 7 7 7 6 4 7 6 4 4 6 1 4 4 5 6 6 6 7 6 5 5 6 7 9 7 2 2 1
6 6 7 6 7 6 7 7 9 7 7 7 7 6 8 7 5 6 9 5 6 5 4 4 4 6 10 10 8 5 4 7 6 4 5 4 3 5 5 5 6 4 1
9 7 3 3 4 5 6 5 6 8 8 7 7 5 4 7 5 4 8 6 7 7 6 5 5 7 11 11 7 6 11 7 3 3 3 3 2 4 4 4 5 6 6
8 4 3 2 2 2 4 5 5 7 9 6 6 6 5 4 6 13 10 11 10 8 5 8 8 10 11 9 9 7 5 4 4 3 4 3 3 3 3 3 3 4 5
7 6 5 5 4 5 4 1 5 6 7 8 8 7 6 6 6 7 7 8 11 10 10 5 5 8 8 6 4 7 4 4 4 4 4 4 3 3 4 3 2 2 1
7 7 6 5 6 7 8 5 4 4 2 9 8 9 9 7 4 7 9 8 7 6 8 5 5 4 6 6 6 5 5 5 5 4 4 4 4 3 4 3 3 2 2
8 5 5 5 5 5 5 7 20 15 20 18 16 10 6 14 13 16 14 15 12 7 5 4 5 5 6 5 5 5 5 5 5 4 4 4 4 4 3 3 2 3 2
8 7 6 7 5 5 5 7 9 13 24 21 16 15 12 10 11 16 15 12 10 6 6 5 6 5 5 5 5 4 5 5 4 4 4 4 3 3 3 4 3 3 3
8 9 6 8 7 7 8 8 6 8 7 5 12 11 12 11 7 11 13 10 6 4 6 6 6 6 5 5 4 4 4 4 4 4 5 4 4 4 4 4 4 4 3
8 7 7 7 7 7 6 6 8 9 9 7 6 7 8 7 8 9 3 4 6 6 5 6 6 5 5 4 5 4 4 4 4 4 4 4 4 3 4 4 4 3 3
7 12 8 7 6 6 6 5 6 7 9 8 8 8 6 6 6 6 4 5 5 6 6 6 5 4 4 4 4 4 4 3 3 3 3 4 3 4 4 3 4 3 3
7 7 11 7 7 7 8 9 8 8 8 7 7 6 5 4 5 5 5 4 4 5 4 5 5 5 5 4 4 4 4 3 3 3 3 3 2 3 2 3 3 2 3
7 7 8 8 7 8 8 8 8 8 8 7 6 5 1 4 5 5 4 4 4 3 3 4 4 5 5 6 5 5 4 4 3 3 3 3 2 2 1 0 1 1 2
8 9 8 8 8 8 7 6 7 6 7 6 6 6 4 4 4 4 4 3 2 2 3 3 4 5 5 6 6 6 5 4 3 2 3 3 3 2 2 3 2 3 2
8 8 9 8 7 7 7 6 5 4 6 6 5 5 4 3 3 2 1 1 1 1 1 3 5 6 7 8 6 6 5 4 3 2 2 2 2 2 3 2 2 2 2
7 8 8 8 8 7 7 6 6 6 6 6 6 5 5 4 4 4 4 3 2 2 2 1 2 5 10 11 10 10 8 8 3 4 4 4 2 1 1 1 1 2 2
6 7 7 7 7 7 7 7 6 6 6 6 6 5 5 5 5 5 4 5 4 4 5 4 3 2 6 9 11 9 8 10 7 5 4 4 3 2 2 2 3 2 3
Wind_Direction
208 213 215 212 219 218 220 218 231 226 215 216 223 226 227 225 213 218 229 233 226 237 246 250 263 265 268 259 257 266 263 263 277 304 299 342 285 316 118 105 187 71 105
209 210 215 219 220 223 224 221 212 225 226 233 232 223 235 228 219 220 226 228 230 240 253 254 273 279 263 254 249 257 249 240 266 275 337 288 283 355 356 274 307 30 50
211 210 214 219 224 227 227 228 227 221 228 227 225 234 234 235 223 221 229 233 235 246 254 251 263 268 261 260 254 262 269 254 230 254 282 270 281 246 226 257 253 236 213
222 219 218 215 220 227 226 225 225 223 222 229 226 229 230 228 216 222 226 231 236 245 250 255 260 262 261 268 259 262 266 257 252 259 270 274 270 209 276 282 257 219 224
214 216 217 215 213 218 220 219 227 223 220 213 222 224 227 223 221 226 235 236 244 255 264 263 261 265 275 283 279 273 264 263 273 275 263 276 272 251 268 314 277 301 202
223 229 224 226 218 219 216 210 217 227 222 219 216 220 226 233 228 215 234 239 250 260 265 272 272 248 253 263 266 297 317 307 291 295 289 297 291 301 331 308 293 288 296
234 236 231 217 215 218 220 218 209 217 219 218 223 230 234 240 213 214 213 255 259 260 267 280 286 50 36 8 19 123 78 61 38 325 301 349 334 22 328 322 338 311 348
245 237 238 232 226 219 219 222 217 216 215 217 221 223 235 241 172 176 186 241 237 234 229 210 169 160 98 132 172 102 58 30 28 61 65 73 65 339 278 337 352 41 36
241 239 231 219 222 215 217 222 222 211 214 217 221 220 223 203 158 156 173 204 206 186 171 173 180 142 143 189 180 155 125 97 83 91 99 98 70 46 31 184 75 241 119
240 235 229 220 214 216 216 218 219 216 215 214 200 201 172 155 161 168 208 198 182 167 142 109 19 146 137 125 182 178 166 152 145 121 106 69 82 70 51 49 30 59 82
230 183 173 157 174 183 188 186 191 178 129 139 138 139 135 137 156 205 223 241 166 157 152 126 81 53 68 66 66 71 52 132 119 132 129 111 64 60 53 44 36 15 23
186 166 172 178 180 172 161 151 139 134 136 142 137 125 128 127 77 171 211 212 139 149 132 117 100 83 68 58 53 75 120 120 121 125 113 85 70 52 48 55 59 58 54
185 170 136 136 213 196 172 172 163 162 140 152 145 138 123 94 84 82 84 98 100 103 106 109 102 85 85 71 64 70 111 127 137 127 103 100 78 69 79 106 107 113 96
155 125 109 101 76 49 45 154 168 166 159 153 146 141 128 117 111 115 112 101 90 96 103 95 90 88 82 85 73 73 78 84 103 106 96 89 87 76 70 52 51 36 261
107 105 106 95 91 86 62 23 29 18 186 159 153 139 138 126 120 116 123 116 111 96 105 114 98 95 97 97 89 94 99 101 96 100 90 76 67 55 53 22 20 8 358
109 103 104 104 95 98 103 87 49 59 61 57 64 83 51 107 124 95 93 102 100 110 95 127 122 119 108 108 106 104 90 90 74 71 70 58 53 36 35 52 40 23 39
117 121 117 113 108 109 98 92 90 59 61 46 53 82 89 118 105 111 108 97 123 124 118 121 123 128 127 123 116 103 87 71 73 69 66 60 48 60 25 34 27 20 58
113 107 127 125 114 113 113 105 102 95 91 71 40 56 53 75 95 130 121 117 120 145 145 144 139 127 123 114 102 98 99 98 87 70 62 43 38 27 34 37 33 20 18
131 129 128 123 113 101 109 112 115 116 115 114 107 83 94 89 89 79 60 129 133 132 134 126 124 125 121 119 105 99 98 93 83 86 75 60 47 31 56 43 67 38 313
119 116 109 105 100 93 84 80 95 119 129 137 130 127 140 157 134 134 143 147 140 143 145 133 132 129 125 120 112 110 115 133 116 110 87 72 60 40 53 53 45 30 35
122 134 128 120 120 146 148 150 134 131 126 126 124 126 78 129 122 128 136 150 147 138 147 157 152 152 152 150 144 148 147 136 140 143 137 118 81 69 58 63 47 45 23
124 132 137 137 140 143 133 130 127 125 129 132 132 127 158 141 131 136 142 154 158 152 143 169 177 176 177 172 167 166 163 158 155 169 181 179 164 129 104 264 332 340 336
131 135 133 133 126 121 119 126 126 134 135 138 142 145 169 140 135 130 128 136 161 180 199 207 196 190 181 181 183 176 166 165 142 157 181 188 198 239 293 298 318 308 321
143 143 143 136 141 140 137 141 137 133 149 153 160 157 168 171 179 175 215 128 143 169 221 220 223 210 191 193 177 195 180 150 136 136 192 196 235 189 287 272 312 7 159
140 142 146 148 148 140 134 135 133 132 127 126 125 123 119 120 118 110 98 88 76 44 32 349 248 227 213 199 190 196 120 124 197 133 180 168 176 228 272 288 30 151 154
155 148 137 136 140 143 139 137 133 131 124 121 119 115 111 108 103 92 83 67 59 60 40 34 20 287 211 200 199 159 130 148 163 212 169 170 178 184 208 185 170 180 155